Weather History for Mesquite, TX

Change the Weather History Date:

Monday, March 10, 2014

  Actual Average (KDFW) Record (KDFW)
Temperature  
Mean Temperature 56 °F 56 °F  
Max Temperature 75 °F 66 °F 99 °F (1911)
Min Temperature 36 °F 46 °F 15 °F (1948)
Degree Days  
Heating Degree Days 10 10  
Month to date heating degree days 109  
Since 1 July heating degree days 2041  
Cooling Degree Days 0 1  
Month to date cooling degree days 8  
Year to date cooling degree days 15  
Growing Degree Days 6 (Base 50)    
Moisture  
Dew Point 42 °F    
Average Humidity 66    
Maximum Humidity 100    
Minimum Humidity 27    
Precipitation  
Precipitation 0.00 in 0.12 in 1.41 in (1959)
Month to date precipitation 1.14  
Year to date precipitation 5.93  
Snow  
Snow 0.00 in 0.00 in T in (1948)
Month to date snowfall 0.0  
Since 1 July snowfall 1.0  
Snow Depth -    
Sea Level Pressure  
Sea Level Pressure 30.06 in    
Wind  
Wind Speed 3 mph (South)    
Max Wind Speed 14 mph    
Max Gust Speed 20 mph    
Visibility 7 miles    
Events Fog    
T = Trace of Precipitation, MM = Missing Value Source: NWS Daily Summary

Daily Weather History Graph

Daily Weather History Graph

Search for Another Location

Airport:

Trip Planner

Search our weather history database for the weather conditions in past years. The results will help you decide how hot, cold, wet, or windy it might be!

Date:

Astronomy

Mar. 10, 2014 Rise Set
Actual Time 7:42 AM CDT 7:30 PM CDT
Civil Twilight 7:18 AM CDT 7:54 PM CDT
Nautical Twilight 6:49 AM CDT 8:23 PM CDT
Astronomical Twilight 6:21 AM CDT 8:52 PM CDT
Moon 2:27 PM CDT (3/10) 3:42 AM CDT (3/10)
Length of Visible Light 12h 36m
Length of Day
11h 47m
Waxing Gibbous, 70% of the Moon is Illuminated
Mar 10
Waxing Gibbous
Mar 16
Full
Mar 23
Last Quarter
Mar 30
New
Apr 7
First Quarter

Hourly Weather History & Observations

Time (CDT) Temp. Windchill Dew Point Humidity Pressure Visibility Wind Dir Wind Speed Gust Speed Precip Events Conditions
12:15 AM 43.7 °F - 39.7 °F 86% 30.20 in 7.0 mi Calm Calm - N/A   Clear
12:35 AM 42.4 °F - 38.5 °F 86% 30.20 in 7.0 mi Calm Calm - N/A   Clear
12:55 AM 41.5 °F - 37.6 °F 86% 30.20 in 7.0 mi Calm Calm - N/A   Clear
1:15 AM 41.0 °F - 37.2 °F 86% 30.19 in 7.0 mi Calm Calm - N/A   Clear
1:35 AM 41.7 °F - 37.9 °F 86% 30.20 in 7.0 mi Calm Calm - N/A   Clear
1:55 AM 40.8 °F - 37.4 °F 88% 30.19 in 5.0 mi Calm Calm - N/A   Clear
2:15 AM 41.0 °F - 37.8 °F 88% 30.19 in 5.0 mi Calm Calm - N/A   Clear
2:35 AM 41.7 °F - 39.6 °F 92% 30.19 in 3.0 mi Calm Calm - N/A   Clear
2:55 AM 41.9 °F 38.2 °F 39.7 °F 92% 30.19 in 5.0 mi South 5.8 mph - N/A   Clear
3:15 AM 39.2 °F 35.9 °F 37.4 °F 93% 30.18 in 4.0 mi South 4.6 mph - N/A   Clear
3:35 AM 38.8 °F - 37.4 °F 95% 30.17 in 4.0 mi Calm Calm - N/A   Clear
3:55 AM 38.3 °F - 36.3 °F 93% 30.16 in 4.0 mi Calm Calm - N/A   Clear
4:15 AM 38.7 °F - 37.2 °F 95% 30.16 in 1.8 mi Calm Calm - N/A   Unknown
4:35 AM 38.7 °F 36.3 °F 37.4 °F 95% 30.15 in 0.2 mi SE 3.5 mph - N/A   Unknown
4:55 AM 39.2 °F 37.0 °F 38.3 °F 97% 30.15 in 0.8 mi SSE 3.5 mph - N/A   Unknown
5:15 AM 38.3 °F - 37.2 °F 96% 30.15 in 2.5 mi Calm Calm - N/A   Clear
5:35 AM 37.6 °F - 36.5 °F 96% 30.14 in 1.5 mi Calm Calm - N/A   Unknown
5:55 AM 38.3 °F - 37.0 °F 95% 30.15 in 0.5 mi Calm Calm - N/A   Unknown
6:15 AM 37.9 °F - 36.9 °F 96% 30.15 in 0.2 mi Calm Calm - N/A   Unknown
6:35 AM 37.8 °F 35.3 °F 36.9 °F 97% 30.15 in 0.2 mi SSE 3.5 mph - N/A   Unknown
6:55 AM 37.4 °F - 37.4 °F 100% 30.14 in 0.2 mi North - - N/A Fog Fog
7:15 AM 36.1 °F 33.5 °F 35.2 °F 97% 30.13 in 1.0 mi SE 3.5 mph - N/A   Unknown
7:31 AM 37.4 °F - 35.6 °F 93% 30.14 in 1.2 mi Calm Calm - N/A Fog Fog
7:35 AM 37.4 °F - 36.5 °F 97% 30.14 in 1.2 mi Calm Calm - N/A   Unknown
7:55 AM 37.4 °F - 35.6 °F 93% 30.14 in 1.5 mi Calm Calm - N/A Fog Fog
8:15 AM 38.1 °F - 37.2 °F 97% 30.15 in 0.2 mi Calm Calm - N/A   Unknown
8:35 AM 37.8 °F - 36.9 °F 97% 30.15 in 3.0 mi Calm Calm - N/A   Clear
8:55 AM 42.8 °F 41.1 °F 41.0 °F 93% 30.15 in 2.0 mi SE 3.5 mph - N/A Fog Fog
9:15 AM 44.4 °F 42.9 °F 43.2 °F 95% 30.15 in 3.0 mi SSE 3.5 mph - N/A   Clear
9:25 AM 46.4 °F - 44.6 °F 93% 30.15 in 3.0 mi Calm Calm - N/A   Clear
9:35 AM 47.1 °F - 44.8 °F 92% 30.15 in 3.0 mi Calm Calm - N/A   Clear
9:55 AM 50.4 °F - 45.0 °F 82% 30.15 in 5.0 mi Calm Calm - N/A   Clear
9:57 AM 51.8 °F - 44.6 °F 76% 30.15 in 4.0 mi Calm Calm - N/A   Clear
10:15 AM 53.4 °F - 45.1 °F 74% 30.15 in 5.0 mi Calm Calm - N/A   Clear
10:35 AM 57.4 °F - 45.7 °F 65% 30.14 in 7.0 mi SSW 4.6 mph - N/A   Clear
10:55 AM 60.4 °F - 44.2 °F 55% 30.14 in 10.0 mi SSW 4.6 mph - N/A   Clear
10:57 AM 60.8 °F - 44.6 °F 55% 30.14 in 10.0 mi Calm Calm - N/A   Clear
11:15 AM 62.1 °F - 44.2 °F 52% 30.14 in 10.0 mi SSW 8.1 mph - N/A   Clear
11:35 AM 62.8 °F - 44.1 °F 50% 30.12 in 10.0 mi SSW 8.1 mph - N/A   Clear
11:55 AM 63.7 °F - 44.2 °F 49% 30.12 in 10.0 mi SSW 8.1 mph - N/A   Clear
11:56 AM 64.4 °F - 44.6 °F 49% 30.12 in 10.0 mi South 6.9 mph - N/A   Clear
12:15 PM 66.0 °F - 44.4 °F 46% 30.10 in 10.0 mi SSW 8.1 mph - N/A   Clear
12:35 PM 66.9 °F - 43.7 °F 43% 30.09 in 10.0 mi South 8.1 mph - N/A   Clear
12:55 PM 68.0 °F - 44.6 °F 43% 30.07 in 10.0 mi SW 6.9 mph - N/A   Clear
1:00 PM 68.4 °F - 42.4 °F 39% 30.07 in 10.0 mi SSW 6.9 mph - N/A   Clear
1:15 PM 69.6 °F - 41.4 °F 36% 30.06 in 10.0 mi SSW 9.2 mph - N/A   Clear
1:35 PM 70.5 °F - 37.6 °F 30% 30.05 in 10.0 mi South 8.1 mph - N/A   Clear
1:55 PM 71.1 °F - 39.4 °F 32% 30.04 in 10.0 mi South 11.5 mph 16.1 mph N/A   Clear
2:15 PM 72.5 °F - 39.6 °F 30% 30.01 in 10.0 mi SSE 10.4 mph 18.4 mph N/A   Clear
2:35 PM 72.3 °F - 38.3 °F 29% 30.00 in 10.0 mi South 12.7 mph 19.6 mph N/A   Clear
2:55 PM 73.2 °F - 40.1 °F 30% 29.99 in 10.0 mi South 13.8 mph - N/A   Clear
3:15 PM 73.8 °F - 40.3 °F 30% 29.98 in 10.0 mi South 13.8 mph - N/A   Clear
3:35 PM 74.1 °F - 40.1 °F 29% 29.96 in 10.0 mi SSW 9.2 mph - N/A   Clear
3:55 PM 75.2 °F - 39.2 °F 27% 29.94 in 10.0 mi South 11.5 mph 17.3 mph N/A   Clear
4:15 PM 74.5 °F - 40.1 °F 29% 29.93 in 10.0 mi South 8.1 mph 16.1 mph N/A   Clear
4:35 PM 74.7 °F - 40.6 °F 29% 29.92 in 10.0 mi South 11.5 mph - N/A   Clear
4:55 PM 74.5 °F - 40.8 °F 30% 29.91 in 10.0 mi South 9.2 mph - N/A   Clear
5:15 PM 74.5 °F - 41.4 °F 30% 29.91 in 10.0 mi South 11.5 mph - N/A   Clear
5:40 PM 74.3 °F - 41.5 °F 31% 29.90 in 10.0 mi SSE 9.2 mph - N/A   Clear
5:55 PM 73.9 °F - 41.5 °F 31% 29.90 in 10.0 mi South 10.4 mph - N/A   Clear
6:15 PM 73.8 °F - 42.8 °F 33% 29.89 in 10.0 mi SSE 10.4 mph - N/A   Scattered Clouds
6:35 PM 72.9 °F - 43.5 °F 35% 29.89 in 10.0 mi SSE 10.4 mph 16.1 mph N/A   Clear
6:55 PM 72.0 °F - 43.7 °F 36% 29.89 in 10.0 mi SSE 8.1 mph - N/A   Clear
7:15 PM 70.5 °F - 45.3 °F 40% 29.89 in 10.0 mi SSE 10.4 mph - N/A   Clear
7:35 PM 68.5 °F - 46.2 °F 45% 29.89 in 10.0 mi SSE 10.4 mph - N/A   Clear
7:55 PM 67.1 °F - 47.3 °F 49% 29.90 in 10.0 mi SSE 8.1 mph - N/A   Clear
8:15 PM 66.7 °F - 48.4 °F 52% 29.90 in 10.0 mi SSE 8.1 mph - N/A   Clear
8:35 PM 65.8 °F - 49.6 °F 56% 29.91 in 10.0 mi South 8.1 mph - N/A   Clear
8:55 PM 65.5 °F - 51.8 °F 61% 29.91 in 10.0 mi South 10.4 mph - N/A   Clear
9:15 PM 65.3 °F - 52.7 °F 64% 29.91 in 10.0 mi South 11.5 mph - N/A   Clear
9:35 PM 64.9 °F - 52.9 °F 65% 29.91 in 10.0 mi South 11.5 mph - N/A   Clear
9:55 PM 63.5 °F - 52.9 °F 68% 29.91 in 10.0 mi South 10.4 mph - N/A   Clear
10:15 PM 62.8 °F - 52.9 °F 70% 29.91 in 10.0 mi South 8.1 mph - N/A   Clear
10:35 PM 61.9 °F - 52.9 °F 72% 29.91 in 10.0 mi South 8.1 mph - N/A   Clear
10:55 PM 60.4 °F - 52.7 °F 76% 29.90 in 10.0 mi South 6.9 mph - N/A   Clear
11:15 PM 60.4 °F - 52.7 °F 76% 29.90 in 10.0 mi South 4.6 mph - N/A   Clear
11:35 PM 59.4 °F - 52.0 °F 77% 29.89 in 10.0 mi South 5.8 mph - N/A   Clear
11:55 PM 57.2 °F - 51.4 °F 81% 29.88 in 10.0 mi South 4.6 mph - N/A   Clear